Waarnemingen

Advertentie
Mijn weer
Geneve-Cointrin, Zwitserland (6700): temperatuur & dauwpunt: 16.09.2019 10:00:00 - 22.09.2019 10:00:00 (CEST)Geneve-Cointrin, Zwitserland (6700): temperatuur 5cm: 16.09.2019 10:00:00 - 22.09.2019 10:00:00 (CEST)Geneve-Cointrin, Zwitserland (6700): windsnelheid & windstoten: 16.09.2019 10:00:00 - 22.09.2019 10:00:00 (CEST)Geneve-Cointrin, Zwitserland (6700): windrichting: 16.09.2019 10:00:00 - 22.09.2019 10:00:00 (CEST)Geneve-Cointrin, Zwitserland (6700): luchtdruk: 16.09.2019 10:00:00 - 22.09.2019 10:00:00 (CEST)Geneve-Cointrin, Zwitserland (6700): zicht: 16.09.2019 10:00:00 - 22.09.2019 10:00:00 (CEST)Geneve-Cointrin, Zwitserland (6700): Zonneschijnduur: 16.09.2019 10:00:00 - 22.09.2019 10:00:00 (CEST)Geneve-Cointrin, Zwitserland (6700): neerslag: 16.09.2019 10:00:00 - 22.09.2019 10:00:00 (CEST)
Datum & Tijd tt [°C] td [°C] tt 5cm [°C] ff [km/u] ff [kn] fx [km/u] fx [kn] dd ppp [hPa] vv [km] sd [min] rr [mm]
22.09.2019 10:00:00 17,8 13,9 19,7 4 2 10 5 ZO 1012,6 - 4 0,0
22.09.2019 09:00:00 16,6 13,8 17,3 1 1 6 3 N 1012,9 - 0 0,0
22.09.2019 08:00:00 15,3 13,2 13,7 3 2 6 4 ZW 1013,2 17 0 0,0
22.09.2019 07:00:00 15,6 13,4 14,5 2 1 5 3 N 1013,0 - 0 0,0
22.09.2019 06:00:00 16,0 13,3 14,5 3 2 8 4 ZW 1012,8 - 0 0,0
22.09.2019 05:00:00 16,2 13,3 15,1 0 0 9 5 N 1013,2 - 0 0,0
22.09.2019 04:00:00 16,2 13,3 15,3 3 2 6 3 WNW 1013,6 - 0 0,0
22.09.2019 03:00:00 16,5 13,2 15,2 1 1 6 3 W 1013,6 - 0 0,0
22.09.2019 02:00:00 16,7 13,1 15,3 4 2 7 4 ZW 1013,5 - 0 0,0
22.09.2019 01:00:00 16,4 13,1 15,3 3 2 4 2 W 1013,6 - 0 0,0
22.09.2019 00:00:00 16,2 13,0 14,3 2 1 4 2 WNW 1013,7 - 0 0,0
21.09.2019 23:00:00 17,4 13,6 15,7 2 1 6 4 N 1014,0 25 0 0,0
21.09.2019 22:00:00 17,7 14,2 16,3 4 2 12 7 N 1014,2 - 0 0,0
21.09.2019 21:00:00 18,0 14,6 16,5 3 2 4 2 NO 1014,7 - 0 0,0
21.09.2019 20:00:00 18,7 14,4 16,6 1 0 8 5 W 1014,6 35 0 0,0
21.09.2019 19:00:00 19,8 14,2 18,7 3 2 11 6 O 1013,9 - 0 0,0
21.09.2019 18:00:00 21,8 12,1 22,3 7 4 14 7 NO 1014,0 - 7 0,0
21.09.2019 17:00:00 22,2 11,7 24,4 10 5 16 9 ONO 1014,5 35 43 0,0
21.09.2019 16:00:00 22,1 11,6 27,9 10 6 18 10 O 1015,1 - 60 0,0
21.09.2019 15:00:00 21,8 10,8 27,3 12 7 19 11 ONO 1016,4 - 60 0,0
21.09.2019 14:00:00 19,9 9,7 26,6 10 5 16 8 OZO 1017,7 30 60 0,0
21.09.2019 13:00:00 18,0 9,6 25,2 9 5 16 9 O 1018,9 - 60 0,0
21.09.2019 12:00:00 17,8 9,4 24,4 9 5 26 14 ONO 1019,5 - 60 0,0
21.09.2019 11:00:00 16,5 9,2 22,1 8 4 16 9 O 1020,3 30 60 0,0
21.09.2019 10:00:00 15,0 9,7 19,3 4 2 15 8 O 1020,9 - 60 0,0
21.09.2019 09:00:00 12,4 9,8 15,2 1 1 5 3 NNO 1021,2 - 37 0,0
21.09.2019 08:00:00 9,2 7,6 8,0 3 2 5 3 NW 1021,9 30 0 0,0
21.09.2019 07:00:00 9,1 7,5 7,4 3 1 5 3 NNW 1022,1 - 0 0,0
21.09.2019 06:00:00 9,2 7,8 7,3 3 1 6 3 NW 1022,1 - 0 0,0
21.09.2019 05:00:00 9,4 7,7 7,6 2 1 4 2 NW 1022,1 - 0 0,0
21.09.2019 04:00:00 9,6 7,8 7,6 2 1 4 2 W 1022,3 - 0 0,0
21.09.2019 03:00:00 10,6 8,5 7,9 3 2 6 3 W 1022,2 - 0 0,0
21.09.2019 02:00:00 11,3 8,4 8,3 3 1 6 3 NW 1022,3 - 0 0,0
21.09.2019 01:00:00 11,9 8,5 9,3 2 1 7 4 W 1022,3 - 0 0,0
21.09.2019 00:00:00 12,3 8,5 9,9 1 0 8 5 NNW 1022,4 - 0 0,0
20.09.2019 23:00:00 15,1 8,8 12,1 4 2 9 5 N 1021,8 40 0 0,0
20.09.2019 22:00:00 14,7 9,8 11,3 3 1 9 5 WNW 1021,9 - 0 0,0
20.09.2019 21:00:00 15,3 9,7 11,5 5 3 10 5 N 1021,8 - 0 0,0
20.09.2019 20:00:00 16,6 9,7 13,0 4 2 9 5 N 1021,1 40 6 0,0
20.09.2019 19:00:00 19,0 9,4 19,6 6 3 15 8 NO 1020,6 - 60 0,0
20.09.2019 18:00:00 19,8 9,1 22,2 11 6 23 12 NO 1020,6 - 60 0,0
20.09.2019 17:00:00 20,1 8,8 24,1 13 7 22 12 NO 1020,9 40 60 0,0
20.09.2019 16:00:00 19,2 8,1 24,6 13 7 23 12 NNO 1021,8 - 60 0,0
20.09.2019 15:00:00 18,7 7,7 24,7 16 8 26 14 ONO 1022,7 - 60 0,0
20.09.2019 14:00:00 17,6 7,2 23,5 12 7 25 13 NNO 1023,5 40 60 0,0
20.09.2019 13:00:00 16,8 7,1 22,9 12 6 26 14 NO 1024,1 - 60 0,0
20.09.2019 12:00:00 15,5 6,2 21,1 14 8 25 14 NO 1024,8 - 60 0,0
20.09.2019 11:00:00 13,8 5,9 19,2 14 7 31 17 NO 1025,4 50 60 0,0
20.09.2019 10:00:00 13,0 5,6 16,4 21 12 29 16 NO 1025,7 - 60 0,0
20.09.2019 09:00:00 12,1 5,5 14,7 6 3 11 6 N 1025,6 - 37 0,0
20.09.2019 08:00:00 8,6 5,0 5,8 4 2 9 5 NNW 1025,8 50 0 0,0
20.09.2019 07:00:00 8,8 4,5 4,9 1 1 10 5 NNO 1025,4 - 0 0,0
20.09.2019 06:00:00 9,8 4,6 6,2 5 3 14 8 N 1025,0 - 0 0,0
20.09.2019 05:00:00 10,3 4,7 7,3 8 4 18 10 N 1025,2 - 0 0,0
20.09.2019 04:00:00 11,7 4,8 9,9 6 4 20 11 N 1025,0 - 0 0,0
20.09.2019 03:00:00 12,2 4,6 9,9 10 5 19 10 N 1025,0 - 0 0,0
20.09.2019 02:00:00 12,7 4,3 10,6 11 6 25 14 N 1024,9 - 0 0,0
20.09.2019 01:00:00 13,5 4,5 11,3 11 6 32 17 N 1024,3 - 0 0,0
20.09.2019 00:00:00 14,4 4,1 12,3 12 7 25 13 NNO 1024,0 - 0 0,0
19.09.2019 23:00:00 14,9 4,0 12,8 13 7 30 16 NNO 1023,4 75 0 0,0
19.09.2019 22:00:00 15,3 4,0 13,4 14 8 30 16 NNO 1023,1 - 0 0,0
19.09.2019 21:00:00 16,2 3,5 14,1 14 8 31 17 NNO 1022,4 - 0 0,0
19.09.2019 20:00:00 17,2 2,6 15,0 15 8 40 22 NNO 1021,5 75 11 0,0
19.09.2019 19:00:00 18,3 3,4 18,3 24 13 43 23 NNO 1020,9 - 60 0,0
19.09.2019 18:00:00 19,4 4,7 21,1 26 14 46 25 NNO 1020,5 - 60 0,0
19.09.2019 17:00:00 19,6 5,8 22,6 22 12 43 23 NO 1020,6 60 60 0,0
19.09.2019 16:00:00 19,8 6,5 23,8 29 16 43 23 NO 1020,7 - 60 0,0
19.09.2019 15:00:00 18,9 6,7 24,0 26 14 42 23 NO 1021,0 - 60 0,0
19.09.2019 14:00:00 18,5 7,1 23,7 24 13 44 24 NO 1021,3 40 60 0,0
19.09.2019 13:00:00 17,4 6,5 22,0 30 16 44 24 NO 1021,9 - 60 0,0
19.09.2019 12:00:00 15,9 6,2 20,8 24 13 43 23 NO 1022,3 - 60 0,0
19.09.2019 11:00:00 14,9 5,7 17,4 24 13 48 26 NO 1022,5 40 15 0,0
19.09.2019 10:00:00 13,6 5,1 14,3 26 14 51 28 NO 1022,6 - 0 0,0
19.09.2019 09:00:00 13,2 4,9 13,3 30 16 53 29 NO 1022,4 - 0 0,0
19.09.2019 08:00:00 13,2 4,6 12,9 22 12 53 29 NO 1022,0 25 0 0,0
19.09.2019 07:00:00 13,7 5,2 13,2 30 16 45 25 NO 1021,4 - 0 0,0
19.09.2019 06:00:00 13,9 5,5 13,4 22 12 41 22 NO 1021,2 - 0 0,0
19.09.2019 05:00:00 14,3 5,0 13,7 24 13 41 22 NO 1021,3 - 0 0,0
19.09.2019 04:00:00 14,9 5,9 14,3 20 11 40 21 NO 1021,2 - 0 0,0
19.09.2019 03:00:00 14,5 6,4 13,2 19 10 36 20 NNO 1021,3 - 0 0,0
19.09.2019 02:00:00 15,1 6,7 13,7 20 11 35 19 NNO 1021,3 - 0 0,0
19.09.2019 01:00:00 15,6 7,9 13,8 16 9 29 16 NNO 1021,1 - 0 0,0
19.09.2019 00:00:00 16,4 8,5 14,6 16 9 32 17 NNO 1020,7 - 0 0,0
18.09.2019 23:00:00 16,4 8,5 14,5 14 7 28 15 NNO 1020,4 25 0 0,0
18.09.2019 22:00:00 16,3 8,4 14,3 12 6 22 12 NNO 1020,1 - 0 0,0
18.09.2019 21:00:00 16,1 9,3 13,2 7 4 19 10 N 1020,0 - 0 0,0
18.09.2019 20:00:00 17,4 9,7 14,6 8 4 16 9 N 1019,3 30 2 0,0
18.09.2019 19:00:00 18,9 11,3 19,0 11 6 28 15 NNO 1018,5 - 60 0,0
18.09.2019 18:00:00 19,5 11,1 21,3 18 10 31 17 NO 1018,4 - 33 0,0
18.09.2019 17:00:00 20,1 11,2 23,4 17 9 35 19 NO 1018,4 30 60 0,0
18.09.2019 16:00:00 19,5 11,5 24,0 16 9 28 15 ONO 1019,0 - 51 0,0
18.09.2019 15:00:00 18,4 10,9 20,5 19 10 33 18 ONO 1019,1 - 0 0,0
18.09.2019 14:00:00 18,0 10,7 20,0 19 11 28 15 NO 1019,2 30 0 0,0
18.09.2019 13:00:00 17,1 10,2 19,4 18 10 33 18 NO 1019,5 - 0 0,0
18.09.2019 12:00:00 17,0 9,8 19,5 22 12 35 19 NO 1019,5 - 0 0,0
18.09.2019 11:00:00 16,4 9,6 18,0 21 12 39 21 NO 1019,7 30 0 0,0
18.09.2019 10:00:00 16,0 9,7 16,4 23 12 34 18 NO 1019,6 - 0 0,0
18.09.2019 09:00:00 16,1 10,0 16,0 23 13 41 22 NO 1019,5 - 0 0,0
18.09.2019 08:00:00 16,3 10,5 15,8 19 10 44 24 NO 1019,1 30 0 0,0
18.09.2019 07:00:00 16,2 10,6 15,4 25 13 48 26 NO 1018,9 - 0 0,0
18.09.2019 06:00:00 16,6 10,3 15,6 23 12 40 22 NO 1018,5 - 0 0,0
18.09.2019 05:00:00 17,3 11,0 16,3 21 12 39 21 NNO 1018,2 - 0 0,0
18.09.2019 04:00:00 18,0 11,6 16,8 16 9 32 17 NO 1017,7 - 0 0,0
18.09.2019 03:00:00 18,6 12,2 17,1 17 9 32 17 NNO 1017,6 - 0 0,0
18.09.2019 02:00:00 19,0 13,7 17,4 14 8 31 17 NNO 1017,4 - 0 0,0
18.09.2019 01:00:00 19,5 13,4 16,5 10 6 19 11 NNO 1016,9 - 0 0,0
18.09.2019 00:00:00 19,0 12,0 14,3 5 3 11 6 NNO 1017,0 - 0 0,0
17.09.2019 23:00:00 18,9 12,7 16,1 6 4 18 10 N 1016,9 30 0 0,0
17.09.2019 22:00:00 20,6 12,1 18,6 10 5 24 13 NNO 1016,2 - 0 0,0
17.09.2019 21:00:00 22,1 12,3 18,8 8 5 16 9 NO 1015,4 - 0 0,0
17.09.2019 20:00:00 22,4 10,9 18,6 6 3 14 8 N 1014,9 40 15 0,0
17.09.2019 19:00:00 26,4 10,9 26,5 10 5 17 9 NNO 1014,2 - 60 0,0
17.09.2019 18:00:00 28,2 12,0 30,5 12 7 23 13 NO 1013,8 - 60 0,0
17.09.2019 17:00:00 28,8 11,2 32,6 11 6 21 12 NO 1013,9 40 60 0,0
17.09.2019 16:00:00 28,5 12,4 33,6 11 6 20 11 O 1014,3 - 60 0,0
17.09.2019 15:00:00 29,1 11,0 34,4 11 6 21 11 O 1014,5 - 60 0,0
17.09.2019 14:00:00 28,7 14,3 34,2 8 4 17 9 O 1015,0 35 60 0,0
17.09.2019 13:00:00 27,0 14,0 33,3 7 4 16 9 ZZW 1015,9 - 60 0,0
17.09.2019 12:00:00 25,9 14,3 31,6 4 2 13 7 ZO 1016,7 - 60 0,0
17.09.2019 11:00:00 23,1 14,1 28,5 3 2 11 6 Z 1017,6 25 60 0,0
17.09.2019 10:00:00 20,9 14,1 25,7 4 2 8 4 ZW 1018,1 - 60 0,0
17.09.2019 09:00:00 17,9 14,0 20,4 1 1 8 4 W 1018,5 - 43 0,0
17.09.2019 08:00:00 14,6 12,6 12,8 3 1 5 3 NW 1018,8 20 0 0,0
17.09.2019 07:00:00 13,9 12,3 11,7 2 1 8 4 NW 1018,8 - 0 0,0
17.09.2019 06:00:00 14,6 12,5 12,3 3 2 7 4 WZW 1018,7 - 0 0,0
17.09.2019 05:00:00 14,7 12,5 12,6 3 1 7 4 WNW 1018,6 - 0 0,0
17.09.2019 04:00:00 15,2 12,9 12,6 2 1 5 3 Z 1018,6 - 0 0,0
17.09.2019 03:00:00 15,8 13,3 13,2 3 1 6 3 NNW 1018,7 - 0 0,0
17.09.2019 02:00:00 16,1 13,3 13,3 1 0 6 3 W 1018,9 - 0 0,0
17.09.2019 01:00:00 17,0 13,6 14,5 3 2 5 3 W 1018,8 - 0 0,0
17.09.2019 00:00:00 18,2 13,5 15,0 2 1 8 5 N 1018,6 - 0 0,0
16.09.2019 23:00:00 19,4 14,4 15,5 3 1 6 3 N 1018,5 30 0 0,0
16.09.2019 22:00:00 20,2 15,0 16,7 3 2 10 5 NNW 1018,2 - 0 0,0
16.09.2019 21:00:00 22,1 14,3 17,9 5 3 9 5 ONO 1017,7 - 0 0,0
16.09.2019 20:00:00 24,0 14,6 20,6 3 2 9 5 NNO 1017,1 30 7 0,0
16.09.2019 19:00:00 26,6 15,9 26,4 7 4 14 7 NNO 1016,1 - 60 0,0
16.09.2019 18:00:00 28,2 15,1 30,4 10 5 18 10 ONO 1016,3 - 60 0,0
16.09.2019 17:00:00 28,2 13,9 32,3 8 5 18 10 ONO 1016,6 28 60 0,0
16.09.2019 16:00:00 28,1 15,7 33,3 10 5 16 9 O 1017,0 - 60 0,0
16.09.2019 15:00:00 27,9 15,7 33,7 6 3 18 10 O 1017,7 - 60 0,0
16.09.2019 14:00:00 25,9 15,9 32,1 9 5 22 12 O 1018,7 28 60 0,0
16.09.2019 13:00:00 25,6 16,0 31,4 6 4 14 8 ONO 1019,5 - 60 0,0
16.09.2019 12:00:00 23,3 15,4 29,6 4 2 14 8 O 1020,3 - 60 0,0
16.09.2019 11:00:00 22,1 16,0 27,6 4 2 11 6 NNO 1020,7 25 60 0,0
16.09.2019 10:00:00 19,7 15,7 24,7 3 2 11 6 NNO 1021,3 - 60 0,0

tt = temperatuur
td = dauwpunt
tt 5cm = temperatuur 5cm
ff = windsnelheid
fx = windstoten
dd = windrichting
ppp = luchtdruk
vv = zicht
sd = Zonneschijnduur
rr = neerslag

Weerstations in de omgeving